EDT,Max TemperatureF,Mean TemperatureF,Min TemperatureF,Max Dew PointF,MeanDew PointF,Min DewpointF,Max Humidity, Mean Humidity, Min Humidity, Max Sea Level PressureIn, Mean Sea Level PressureIn, Min Sea Level PressureIn, Max VisibilityMiles, Mean VisibilityMiles, Min VisibilityMiles, Max Wind SpeedMPH, Mean Wind SpeedMPH, Max Gust SpeedMPH,PrecipitationIn, CloudCover, Events, WindDirDegrees
2013-10-1,82,65,48,57,52,45,88,67,39,30.15,30.09,30.04,10,10,10,6,1,,0.00,0,,329
2013-10-2,84,70,55,61,56,50,88,68,37,30.16,30.11,30.06,10,10,9,6,1,,0.00,0,,340
2013-10-3,86,73,60,63,57,55,88,62,37,30.16,30.12,30.08,10,10,10,12,4,,0.00,2,,221
2013-10-4,86,73,60,64,60,55,88,69,37,30.16,30.12,30.08,10,9,0,9,4,,0.00,1,,256
2013-10-5,89,74,60,64,60,55,88,65,36,30.14,30.09,30.05,10,9,0,7,2,,0.00,1,,185
2013-10-6,86,75,64,68,64,61,94,73,45,30.09,30.02,29.94,10,8,0,14,5,18,0.00,4,,177
2013-10-7,73,68,64,70,67,59,88,86,83,29.99,29.90,29.86,10,10,5,17,5,25,0.81,7,Thunderstorm,182
2013-10-8,64,58,53,57,49,43,88,74,52,30.20,30.12,29.98,10,9,3,18,7,29,0.58,8,Thunderstorm,38
2013-10-9,64,58,53,54,50,46,82,72,63,30.17,30.13,30.09,10,10,10,12,8,21,0.00,8,,27
2013-10-10,62,58,55,55,52,48,88,77,72,30.08,30.02,29.96,10,10,5,8,5,,0.00,8,,1
2013-10-11,71,66,60,61,57,54,94,75,60,29.99,29.96,29.93,10,10,5,6,2,,0.00,8,,357
2013-10-12,71,64,57,61,58,54,94,81,64,30.09,30.03,29.97,10,10,2,8,1,,0.00,7,,25
2013-10-13,69,66,62,61,59,57,88,83,68,30.19,30.15,30.08,10,9,4,10,4,,0.01,8,,29
2013-10-14,64,60,57,59,57,54,88,81,77,30.23,30.19,30.17,10,9,4,13,7,17,0.07,8,,40
2013-10-15,73,64,55,57,54,52,88,74,53,30.20,30.12,30.06,10,10,9,10,3,,0.00,4,,45
2013-10-16,69,64,60,57,57,55,82,76,64,30.07,30.03,29.98,10,10,10,6,1,,0.00,5,,66
2013-10-17,78,68,57,63,59,54,88,75,54,29.99,29.93,29.88,10,10,10,10,4,17,0.00,4,,239
2013-10-18,66,62,59,63,54,46,94,72,52,30.05,29.98,29.90,10,9,4,10,2,17,0.02,8,,53
2013-10-19,71,66,59,61,57,50,88,78,64,29.98,29.92,29.86,10,9,3,9,1,,0.00,7,,228
2013-10-20,64,54,44,52,43,36,88,65,37,30.12,30.04,29.92,10,10,10,13,2,17,0.00,0,,33
2013-10-21,69,52,35,48,42,34,93,71,38,30.17,30.10,30.01,10,9,4,5,0,,0.00,0,,100
2013-10-22,64,58,51,55,52,46,88,77,68,30.03,29.93,29.82,10,10,8,8,2,,0.00,5,,230
2013-10-23,69,58,46,55,43,28,88,59,26,30.03,29.80,29.72,10,10,6,12,7,21,0.00,3,,285
2013-10-24,60,46,33,41,32,27,81,58,31,30.19,30.12,30.03,10,10,10,10,2,16,0.00,2,,298
2013-10-25,55,45,35,36,29,25,81,54,33,30.38,30.29,30.18,10,10,10,12,3,,0.00,3,,14
2013-10-26,60,44,28,32,28,23,93,58,29,30.37,30.24,30.09,10,10,10,12,2,17,0.00,0,,244
2013-10-27,69,54,39,45,37,30,82,58,33,30.14,30.10,30.06,10,10,10,9,2,,0.00,1,,271
2013-10-28,62,52,42,54,46,39,93,81,67,30.27,30.21,30.13,10,9,0,4,0,,0.00,5,,160
2013-10-29,73,58,44,54,48,41,94,75,43,30.34,30.29,30.26,10,7,0,5,0,,0.00,4,,51
2013-10-30,77,62,46,55,51,43,94,70,44,30.31,30.25,30.18,10,9,1,9,3,18,0.00,1,,216
2013-10-31,77,67,57,61,54,52,88,67,44,30.21,30.11,29.96,10,10,10,13,7,20,0.00,1,,205